RH
65 68 64 79 73 66 44 27 21 22 23 23 17 12 9 10 10 9 10 10 11 12 13 13 13 13 13 12 15 17 18 27 37 31 33 35 38 37 39 41 44 42 36
43 61 52 49 65 59 33 24 23 23 25 21 14 10 10 9 9 10 10 11 12 13 14 14 14 16 16 14 16 19 25 38 39 34 34 40 43 43 42 44 43 47 46
37 41 42 72 83 39 25 22 24 26 25 17 11 10 9 9 9 10 12 14 16 17 17 17 17 18 17 16 21 23 41 46 42 39 40 44 49 50 46 40 42 46 47
35 39 41 54 53 40 24 24 26 26 22 13 11 10 10 9 10 12 15 16 19 18 19 19 22 20 19 22 24 38 54 52 49 49 51 54 56 53 51 51 46 39 42
39 42 50 53 43 31 25 26 26 24 15 11 11 10 9 11 12 16 18 18 21 21 22 24 25 23 25 25 37 63 62 57 60 64 63 62 58 57 55 49 45 48 48
42 44 41 39 30 26 27 26 23 16 12 11 10 10 12 14 16 18 19 24 24 26 28 28 26 27 27 43 74 72 65 68 73 74 70 70 68 62 59 53 53 52 53
39 35 30 27 26 25 22 18 15 12 11 12 12 13 15 17 19 22 26 28 29 30 28 26 28 31 68 85 85 82 87 86 84 81 78 73 72 66 64 64 58 52 50
31 29 25 21 19 17 15 12 12 12 13 13 14 15 19 21 25 30 32 31 30 27 27 30 62 90 92 98 100 98 96 93 86 81 80 78 77 74 70 65 61 58 56
26 23 18 15 14 13 12 13 12 14 15 17 18 21 25 30 33 33 30 28 28 38 73 97 99 100 100 100 100 98 92 90 89 89 87 84 80 71 64 66 63 58 55
13 13 13 13 13 14 15 15 17 20 20 22 27 32 34 31 29 31 46 74 92 100 100 99 95 93 95 95 93 94 98 98 95 94 94 89 84 81 75 68 65 62 62
15 15 16 17 19 20 23 25 27 28 30 32 34 39 47 71 94 98 100 99 93 95 96 89 89 93 96 98 100 100 100 100 99 97 95 97 92 84 78 79 75 68 59
29 29 31 36 40 43 49 57 65 70 74 81 91 98 99 100 98 96 97 98 96 87 86 91 99 100 100 100 99 99 100 99 98 100 99 97 86 84 83 74 64 56 50
81 82 85 86 88 91 91 93 94 97 99 100 100 97 97 100 100 100 99 93 90 96 100 100 100 100 100 98 98 98 97 98 99 100 92 85 80 79 71 59 50 44 37
82 84 87 92 96 98 99 100 100 100 100 100 100 100 100 100 100 99 98 100 100 100 100 100 100 100 100 100 100 100 100 100 97 94 89 85 78 72 62 50 41 38 36
90 92 93 95 98 98 100 100 100 100 100 100 100 100 100 100 100 97 96 99 100 100 100 100 100 100 100 100 100 100 100 99 97 94 90 81 71 59 49 42 38 36 31
81 80 78 80 82 86 88 91 91 89 88 88 91 86 82 87 90 86 90 99 100 100 100 100 100 100 100 100 100 100 97 99 99 92 82 65 53 45 39 35 30 26 24
91 91 93 93 96 97 95 95 92 90 87 87 88 84 78 71 80 92 95 100 100 100 100 100 100 100 100 100 100 100 100 100 92 80 66 60 49 32 23 21 19 16 12
99 100 100 99 99 99 100 97 95 92 92 90 93 87 84 81 100 100 100 100 100 100 100 100 100 100 100 100 100 100 100 94 85 78 70 42 22 22 20 16 11 9 10
99 98 100 98 98 97 98 98 98 97 94 94 100 100 100 100 100 100 100 100 100 100 100 100 100 100 100 100 100 100 99 92 83 75 28 21 22 18 12 10 12 20 24
95 94 94 93 85 83 89 91 92 98 100 100 100 100 100 100 100 100 100 100 100 100 100 100 100 100 100 100 98 96 94 92 61 24 24 22 15 11 12 20 26 26 24
70 73 73 74 74 73 88 98 100 100 100 100 100 100 100 100 100 100 100 100 100 100 100 100 100 100 100 100 97 95 87 42 25 26 20 13 11 15 24 31 33 34 40
49 55 66 79 96 100 100 100 100 100 100 100 100 100 100 100 100 100 100 100 100 100 100 100 100 100 100 99 97 75 31 26 27 19 13 12 23 27 32 37 40 45 44
74 89 99 100 100 100 100 100 100 100 100 100 100 100 100 100 100 100 100 100 100 100 100 100 100 100 98 86 54 34 31 28 18 14 14 30 28 27 27 31 38 37 36
86 98 100 100 100 100 100 100 100 100 100 100 100 100 100 100 98 96 100 100 100 100 100 100 98 92 70 53 44 40 28 19 16 22 37 29 23 21 24 27 30 48 88
48 56 54 57 62 68 99 99 87 81 79 98 100 96 97 96 97 100 100 100 100 100 99 87 80 76 62 50 44 27 20 20 32 44 32 26 27 28 39 72 91 93 98
36 42 45 49 51 51 51 52 53 48 55 54 71 84 92 97 90 75 93 100 96 87 88 88 83 70 58 48 27 22 30 49 52 38 28 29 50 89 98 100 100 100 100
Wind_Speed
42 44 47 45 49 49 48 45 45 45 45 45 43 41 40 40 41 42 41 41 41 42 42 41 41 40 40 35 35 38 40 40 37 38 38 39 39 40 41 40 38 36 35
50 47 43 50 50 49 48 48 48 46 47 46 44 43 43 43 43 43 44 43 43 43 44 43 43 44 42 39 39 42 43 41 40 40 40 42 43 44 45 45 44 42 38
50 46 45 45 48 49 49 50 50 49 47 46 45 45 46 46 46 46 46 45 45 45 45 46 46 47 44 41 44 45 45 43 43 43 44 45 47 47 48 49 48 45 46
50 43 45 53 51 51 53 52 54 50 48 47 48 48 48 48 48 49 48 48 47 47 48 49 50 49 45 46 48 48 48 46 46 48 49 49 49 51 52 51 51 51 50
50 50 52 56 55 53 53 53 54 51 50 50 50 49 50 50 51 51 50 50 49 50 52 53 53 50 49 50 52 51 50 50 51 51 52 52 53 54 55 56 55 54 51
53 53 55 57 56 54 54 55 54 52 51 52 51 51 52 53 54 53 54 53 53 55 56 57 55 53 54 54 54 54 54 55 55 54 55 56 56 57 57 59 58 56 53
53 53 54 54 54 54 56 54 53 52 52 52 53 54 55 56 56 56 56 56 58 59 60 57 57 58 57 57 57 58 57 57 57 57 58 58 59 59 60 60 61 61 59
51 51 50 50 51 53 53 51 52 53 55 56 57 58 58 58 58 58 59 61 62 61 60 60 60 60 59 59 58 58 58 58 59 59 59 60 59 60 61 62 61 59 58
51 52 51 51 52 53 53 54 56 58 59 58 59 59 59 60 62 63 63 62 63 64 64 63 60 58 57 57 58 59 60 61 61 60 60 61 62 63 63 63 63 62 62
45 47 50 52 53 55 56 57 59 59 59 60 61 62 64 64 64 64 65 66 66 64 60 57 57 58 59 60 61 62 62 62 61 61 61 61 62 63 65 65 65 65 65
49 50 52 54 55 56 58 59 60 62 63 63 64 65 65 66 67 67 65 62 59 58 59 60 61 61 61 62 62 62 62 62 62 61 61 62 63 65 64 63 64 65 66
51 53 55 56 58 59 60 61 61 62 63 64 65 66 66 63 61 61 60 60 61 62 61 60 60 61 62 62 62 63 63 63 62 61 62 63 64 64 64 66 68 68 71
53 55 57 58 59 60 61 63 64 64 63 61 60 62 62 60 59 59 60 61 61 60 60 61 63 63 62 63 63 64 64 63 63 63 64 65 66 66 68 70 72 73 73
57 59 60 60 60 61 62 63 62 61 59 60 59 60 59 58 58 60 62 62 61 61 61 62 61 61 62 62 62 63 64 64 66 67 67 69 70 71 74 76 76 77 77
58 58 59 58 58 58 59 58 58 57 56 57 56 57 57 57 58 59 60 61 61 62 63 62 62 62 61 61 61 63 65 67 68 70 70 71 73 75 76 78 78 78 79
51 52 52 52 53 53 53 52 50 50 51 52 53 55 56 58 60 61 62 62 63 64 62 61 61 60 59 60 61 64 68 69 71 72 73 74 75 76 77 78 81 84 87
49 49 49 50 50 50 49 48 48 50 51 52 54 57 57 58 61 62 64 64 63 62 61 61 60 59 60 61 63 65 67 71 73 73 73 73 75 76 79 84 88 91 89
50 49 49 49 50 48 48 49 49 49 51 55 58 60 61 63 64 65 66 65 63 62 60 59 59 60 61 62 64 66 68 72 73 74 74 76 78 81 86 89 88 85 77
50 49 49 49 48 49 50 52 54 57 59 60 65 67 68 67 67 67 65 64 61 60 58 58 60 61 60 62 65 66 67 72 74 75 75 77 83 87 86 82 71 63 57
50 50 51 51 52 52 54 55 57 61 65 67 67 65 64 65 65 65 64 62 58 56 56 57 57 56 58 61 65 67 70 71 73 73 76 81 83 82 74 64 58 52 48
51 52 53 53 54 56 59 60 63 64 65 65 65 65 65 64 62 60 57 55 54 54 54 53 54 57 59 62 66 67 70 70 71 75 78 79 76 66 60 55 50 46 42
52 53 54 55 57 59 62 63 64 65 65 65 64 63 63 61 57 54 53 52 52 53 53 54 55 57 60 63 65 67 67 69 74 76 75 70 61 57 53 47 42 39 35
52 52 54 55 55 55 56 56 56 57 57 57 55 52 51 50 50 50 51 52 51 53 55 56 56 58 61 63 64 65 67 70 73 71 65 58 54 49 45 39 35 32 28
44 47 48 48 48 49 50 50 49 49 49 49 50 50 50 51 54 53 51 51 52 53 54 57 57 57 59 61 62 65 68 69 67 59 55 51 43 37 32 28 25 22 20
44 44 44 45 44 45 48 47 48 48 49 50 49 50 49 50 52 52 52 53 55 55 54 53 54 56 58 60 63 65 65 61 54 52 47 36 28 24 21 19 19 21 24
48 48 49 50 50 52 52 53 53 55 53 54 54 54 53 54 55 55 53 52 51 51 52 54 55 55 58 60 62 61 53 48 48 44 33 24 19 18 21 22 22 22 22
Wind_Direction
255 259 261 258 257 261 264 267 271 276 281 284 286 287 289 291 293 294 294 294 293 294 294 296 297 296 297 286 285 292 293 296 293 290 292 296 297 298 298 298 295 292 290
251 252 254 263 259 258 262 267 273 277 280 283 284 286 289 291 291 292 291 290 289 290 292 294 295 295 294 282 285 289 290 291 290 288 290 293 294 294 296 297 296 294 287
249 253 254 258 254 262 265 267 273 277 280 283 285 286 288 289 289 289 287 287 286 288 291 292 292 293 291 281 285 287 290 289 287 286 288 289 289 289 291 292 293 294 291
247 248 256 255 259 262 264 270 274 277 281 282 283 285 286 287 286 284 283 284 286 288 289 290 291 291 284 283 285 287 287 287 287 286 285 285 285 286 287 289 291 292 292
244 246 250 256 262 263 269 273 275 279 280 280 282 283 284 283 283 282 283 284 285 286 287 288 290 287 284 284 285 285 284 284 285 285 284 284 283 284 286 287 288 289 289
245 249 252 258 264 270 273 274 277 279 279 281 281 282 282 281 282 282 282 283 285 286 288 289 288 285 285 285 285 284 284 284 284 283 283 282 282 281 283 284 285 286 286
249 252 258 260 266 270 272 275 277 277 277 276 279 280 279 279 280 281 283 284 285 287 287 287 286 286 286 285 284 285 285 284 283 283 283 283 283 282 282 284 285 286 284
253 258 263 268 270 273 274 274 273 273 273 274 275 276 277 279 280 281 283 284 285 286 286 285 284 285 284 283 283 283 282 282 283 283 283 282 282 282 283 283 283 281 280
259 263 268 271 271 270 268 269 271 271 272 274 276 277 278 279 280 282 283 284 284 284 284 284 285 283 282 280 279 281 281 282 283 284 284 284 284 283 283 283 283 281 279
262 262 262 263 266 266 267 269 271 272 274 275 276 278 279 280 281 283 283 283 284 285 286 283 280 279 279 279 280 281 282 283 284 284 284 285 285 286 286 284 283 282 281
254 256 259 262 265 267 269 271 272 273 274 276 278 279 280 281 281 283 284 284 282 280 278 279 280 280 281 281 282 282 283 283 284 285 285 285 286 287 286 286 285 284 283
257 259 262 264 266 267 269 270 272 274 275 276 276 278 281 282 281 280 281 281 279 280 282 282 282 282 282 283 283 283 283 284 284 283 284 287 289 289 288 288 289 289 288
265 265 265 266 267 269 270 270 271 274 277 280 278 278 281 282 281 280 279 280 282 283 283 283 284 283 283 283 283 284 284 283 283 284 286 288 288 287 287 288 289 288 288
267 267 267 268 269 270 272 273 275 277 277 278 279 279 280 280 280 279 281 282 283 284 284 284 284 284 284 284 284 283 282 283 284 286 288 289 288 288 290 291 291 291 291
265 266 267 268 269 270 271 273 274 276 277 278 279 280 281 281 281 281 282 283 283 283 283 283 283 282 282 283 282 281 282 284 287 290 291 291 291 293 293 293 294 293 292
260 261 262 263 264 265 267 270 272 273 274 275 276 278 278 278 279 279 281 281 280 280 282 281 281 282 282 282 281 281 284 289 291 292 294 296 297 297 297 297 296 296 296
259 260 262 263 265 267 269 271 270 272 273 274 274 274 275 277 276 277 278 279 280 281 281 279 280 281 282 281 279 283 287 288 292 295 298 298 298 299 299 300 299 298 296
263 264 265 265 267 270 271 272 271 272 271 271 271 272 274 274 276 277 279 281 281 280 278 277 279 280 279 280 282 283 286 290 294 297 298 299 299 300 301 301 300 299 298
268 269 270 270 270 270 267 267 267 266 267 269 269 270 272 275 276 278 280 281 280 278 278 278 278 278 279 282 283 286 289 292 296 298 299 300 302 303 302 302 301 298 298
271 272 272 272 273 271 268 266 266 266 266 268 271 273 274 275 277 278 278 279 278 278 277 277 280 283 283 283 286 288 291 295 298 298 301 303 304 304 303 301 300 298 298
271 271 269 267 266 266 263 263 265 266 267 267 268 270 271 273 275 276 277 278 278 277 278 279 280 282 284 285 288 292 294 297 298 301 303 304 305 303 302 301 300 299 299
268 265 263 262 261 261 262 262 263 264 266 268 270 271 273 274 276 277 277 276 278 279 279 279 281 282 285 289 292 294 296 299 301 303 305 306 303 302 301 300 298 296 296
267 266 264 263 262 262 263 264 266 267 269 271 273 275 277 279 278 279 279 277 277 279 281 281 282 285 289 291 294 297 300 302 304 307 306 303 302 300 297 297 294 293 294
270 270 268 266 264 265 266 268 270 272 274 274 273 273 273 274 278 280 279 279 281 279 278 281 286 289 291 293 296 299 302 305 306 305 303 304 303 301 299 296 293 293 296
271 271 270 267 267 270 269 271 271 272 273 271 271 271 272 274 277 278 277 275 276 278 282 284 287 289 292 295 298 302 305 304 303 303 303 302 301 299 299 298 296 298 301
270 270 270 268 267 268 267 267 268 269 271 272 272 272 272 273 274 275 275 276 278 280 282 285 288 291 294 298 302 304 301 301 303 303 299 297 294 296 299 299 298 297 297